BREEZE M DEB (TANK) - Orbit

View from above orbital plane
View from above orbital plane
View from above satellite
View from above satellite

Ground track
Ground track

The orbit data is extracted from the following two-line orbital elements,

1 28359U 04022B   13144.87300588  .00008033  00000-0  11301-2 0  9809
2 28359 049.5173 070.4097 4745894 061.4292 355.0623 06.05834485194090
Epoch (UTC): 24 May 2013 20:57:07
Eccentricity: 0.4745894
inclination: 49.5173°
perigee height: 300 km
apogee height: 12364 km
right ascension of ascending node: 70.4097°
argument of perigee: 61.4292°
revolutions per day: 6.05834485
mean anomaly at epoch: 355.0623°
orbit number at epoch: 19409

The dashed part of the orbit path shows where the satellite is in the earth's shadow,  

Developed and maintained by Chris Peat, Heavens-Above GmbH. Please read the updated FAQ before sending e-mail. Imprint. DLR